Weather History for KLDJ - April, 2013

Change the Weather History Date:

Tuesday, April 2, 2013

  Actual Average (KEWR) Record (KEWR)
Temperature  
Mean Temperature 40 °F 48 °F  
Max Temperature 46 °F 57 °F 83 °F (1967)
Min Temperature 33 °F 39 °F 28 °F (1964)
Degree Days  
Heating Degree Days 26 17  
Month to date heating degree days 35  
Since 1 July heating degree days 4379  
Cooling Degree Days 0 0  
Month to date cooling degree days 0  
Year to date cooling degree days 1  
Moisture  
Dew Point 13 °F    
Average Humidity 34    
Maximum Humidity 47    
Minimum Humidity 24    
Precipitation  
Precipitation 0.00 in 0.16 in 1.93 in (1970)
Month to date precipitation 0.30  
Year to date precipitation 10.90  
Snow  
Snow 0.00 in 0.00 in 0.70 in (1965)
Month to date snowfall 0.1  
Since 1 July snowfall 27.7  
Snow Depth -    
Sea Level Pressure  
Sea Level Pressure 30.00 in    
Wind  
Wind Speed 11 mph (West)    
Max Wind Speed 22 mph    
Max Gust Speed 30 mph    
Visibility 10 miles    
Events      
T = Trace of Precipitation, MM = Missing Value Source: NWS Daily Summary

Daily Weather History Graph

Daily Weather History Graph

Search for Another Location

Airport or City:

Trip Planner

Search our weather history database for the weather conditions in past years. The results will help you decide how hot, cold, wet, or windy it might be!

Date:

Astronomy

Apr. 02, 2013 Rise Set
Actual Time 6:38 AM EDT 7:22 PM EDT
Civil Twilight 6:10 AM EDT 7:50 PM EDT
Nautical Twilight 5:38 AM EDT 8:23 PM EDT
Astronomical Twilight 5:04 AM EDT 8:57 PM EDT
Moon 1:26 AM EDT 11:25 AM EDT
Length of Visible Light 13h 39m
Length of Day
12h 44m
Waning Gibbous, 56% of the Moon is Illuminated
Apr 2
Waning Gibbous
Apr 3
Last Quarter
Apr 10
New
Apr 18
First Quarter
Apr 25
Full

Hourly Weather History & Observations

Time (EDT) Temp. Windchill Dew Point Humidity Pressure Visibility Wind Dir Wind Speed Gust Speed Precip Events Conditions
12:15 AM 38.8 °F 32.1 °F 12.2 °F 34% 29.93 in 10.0 mi NW 10.4 mph - N/A   Clear
12:35 AM 38.5 °F 31.6 °F 12.6 °F 35% 29.94 in 10.0 mi WNW 10.4 mph - N/A   Clear
12:55 AM 38.3 °F 31.4 °F 12.7 °F 35% 29.95 in 10.0 mi WNW 10.4 mph 16.1 mph N/A   Clear
1:15 AM 37.6 °F 32.3 °F 13.1 °F 37% 29.96 in 10.0 mi WNW 6.9 mph - N/A   Clear
1:35 AM 37.4 °F 30.8 °F 13.1 °F 37% 29.96 in 10.0 mi WNW 9.2 mph - N/A   Clear
1:55 AM 36.5 °F 29.2 °F 13.6 °F 39% 29.96 in 10.0 mi WNW 10.4 mph - N/A   Clear
2:15 AM 36.5 °F 30.3 °F 12.9 °F 38% 29.96 in 10.0 mi WNW 8.1 mph - N/A   Clear
2:35 AM 35.6 °F 31.7 °F 13.3 °F 40% 29.96 in 10.0 mi West 4.6 mph - N/A   Clear
2:55 AM 35.8 °F 31.9 °F 13.1 °F 39% 29.95 in 10.0 mi West 4.6 mph - N/A   Clear
3:15 AM 35.4 °F 32.6 °F 13.1 °F 40% 29.95 in 10.0 mi West 3.5 mph - N/A   Clear
3:35 AM 35.6 °F 29.9 °F 13.1 °F 40% 29.94 in 10.0 mi West 6.9 mph - N/A   Clear
3:55 AM 34.9 °F 28.3 °F 13.6 °F 42% 29.95 in 10.0 mi West 8.1 mph - N/A   Clear
4:15 AM 34.7 °F 27.5 °F 13.6 °F 42% 29.95 in 10.0 mi West 9.2 mph - N/A   Clear
4:35 AM 34.9 °F 29.0 °F 13.5 °F 41% 29.95 in 10.0 mi West 6.9 mph - N/A   Clear
4:55 AM 34.9 °F 30.8 °F 12.7 °F 40% 29.96 in 10.0 mi West 4.6 mph - N/A   Clear
5:15 AM 34.9 °F 29.0 °F 12.9 °F 40% 29.96 in 10.0 mi West 6.9 mph - N/A   Clear
5:35 AM 34.3 °F 31.4 °F 13.3 °F 42% 29.96 in 10.0 mi WSW 3.5 mph - N/A   Clear
5:55 AM 33.8 °F 29.6 °F 14.2 °F 45% 29.97 in 10.0 mi WSW 4.6 mph - N/A   Clear
6:15 AM 33.4 °F 29.1 °F 14.0 °F 45% 29.98 in 10.0 mi WSW 4.6 mph - N/A   Clear
6:35 AM 33.1 °F 28.7 °F 14.7 °F 47% 29.99 in 10.0 mi WSW 4.6 mph - N/A   Clear
6:55 AM 33.3 °F 27.1 °F 14.9 °F 47% 30.00 in 10.0 mi West 6.9 mph - N/A   Clear
7:15 AM 33.4 °F 27.3 °F 15.3 °F 47% 30.01 in 10.0 mi West 6.9 mph - N/A   Clear
7:35 AM 34.5 °F 27.9 °F 15.1 °F 45% 30.01 in 10.0 mi West 8.1 mph - N/A   Clear
7:55 AM 35.6 °F 29.2 °F 14.7 °F 42% 30.02 in 10.0 mi WNW 8.1 mph - N/A   Clear
8:15 AM 36.3 °F 30.1 °F 14.5 °F 41% 30.02 in 10.0 mi WNW 8.1 mph - N/A   Clear
8:35 AM 36.9 °F 30.1 °F 14.5 °F 40% 30.03 in 10.0 mi WNW 9.2 mph 17.3 mph N/A   Clear
8:55 AM 37.8 °F 29.8 °F 15.1 °F 40% 30.03 in 10.0 mi WNW 12.7 mph 18.4 mph N/A   Clear
9:15 AM 38.1 °F 30.2 °F 15.3 °F 39% 30.03 in 10.0 mi WNW 12.7 mph 21.9 mph N/A   Scattered Clouds
9:35 AM 39.4 °F 31.4 °F 15.8 °F 38% 30.03 in 10.0 mi WNW 13.8 mph 21.9 mph N/A   Scattered Clouds
9:55 AM 39.0 °F 30.3 °F 15.1 °F 38% 30.04 in 10.0 mi WNW 16.1 mph 24.2 mph N/A   Scattered Clouds
10:35 AM 40.3 °F 31.6 °F 15.3 °F 36% 30.04 in 10.0 mi WNW 17.3 mph 29.9 mph N/A   Scattered Clouds
10:55 AM 38.7 °F 30.1 °F 16.3 °F 40% 30.04 in 10.0 mi WNW 15.0 mph 23.0 mph N/A   Mostly Cloudy
11:15 AM 40.5 °F 30.9 °F 16.5 °F 38% 30.04 in 10.0 mi WNW 20.7 mph 28.8 mph N/A   Scattered Clouds
11:35 AM 41.2 °F 33.0 °F 15.3 °F 35% 30.03 in 10.0 mi WNW 16.1 mph 26.5 mph N/A   Unknown
11:55 AM 40.8 °F 32.9 °F 13.8 °F 33% 30.03 in 10.0 mi WNW 15.0 mph 24.2 mph N/A   Unknown
12:15 PM 41.9 °F 34.6 °F 14.4 °F 33% 30.02 in 10.0 mi West 13.8 mph 23.0 mph N/A   Scattered Clouds
12:35 PM 42.1 °F 34.2 °F 14.7 °F 33% 30.01 in 10.0 mi WNW 16.1 mph 26.5 mph N/A   Scattered Clouds
12:55 PM 42.8 °F 35.8 °F 13.6 °F 31% 30.01 in 10.0 mi WNW 13.8 mph 19.6 mph N/A   Scattered Clouds
1:15 PM 43.2 °F 36.2 °F 13.5 °F 30% 30.00 in 10.0 mi NW 13.8 mph 25.3 mph N/A   Mostly Cloudy
1:35 PM 43.3 °F 35.8 °F 14.2 °F 31% 30.00 in 10.0 mi WNW 16.1 mph 27.6 mph N/A   Mostly Cloudy
1:55 PM 45.0 °F 37.6 °F 13.8 °F 29% 30.00 in 10.0 mi West 17.3 mph 25.3 mph N/A   Scattered Clouds
2:15 PM 45.0 °F 36.9 °F 13.3 °F 28% 29.99 in 10.0 mi West 20.7 mph 28.8 mph N/A   Scattered Clouds
2:35 PM 44.8 °F 38.3 °F 13.5 °F 28% 29.99 in 10.0 mi West 13.8 mph 27.6 mph N/A   Mostly Cloudy
2:55 PM 44.6 °F 36.9 °F 12.9 °F 28% 29.98 in 10.0 mi WNW 18.4 mph 27.6 mph N/A   Mostly Cloudy
3:15 PM 45.3 °F 37.3 °F 12.0 °F 26% 29.98 in 10.0 mi WNW 20.7 mph 28.8 mph N/A   Mostly Cloudy
3:35 PM 44.6 °F 38.1 °F 11.8 °F 27% 29.98 in 10.0 mi West 13.8 mph 24.2 mph N/A   Scattered Clouds
3:55 PM 44.4 °F 35.9 °F 11.3 °F 26% 29.98 in 10.0 mi West 21.9 mph 27.6 mph N/A   Scattered Clouds
4:15 PM 46.4 °F 39.2 °F 11.8 °F 25% 29.97 in 10.0 mi West 18.4 mph 27.6 mph N/A   Scattered Clouds
4:35 PM 45.1 °F 37.1 °F 11.7 °F 26% 29.98 in 10.0 mi West 20.7 mph 28.8 mph N/A   Scattered Clouds
4:55 PM 46.4 °F 39.0 °F 11.7 °F 25% 29.98 in 10.0 mi West 19.6 mph 25.3 mph N/A   Scattered Clouds
5:15 PM 45.7 °F 38.3 °F 11.7 °F 25% 29.98 in 10.0 mi WNW 18.4 mph 27.6 mph N/A   Scattered Clouds
5:35 PM 45.5 °F 37.6 °F 10.6 °F 24% 29.99 in 10.0 mi West 20.7 mph 27.6 mph N/A   Scattered Clouds
5:55 PM 44.8 °F 37.4 °F 11.1 °F 26% 29.99 in 10.0 mi WNW 17.3 mph 26.5 mph N/A   Scattered Clouds
6:15 PM 45.0 °F 36.9 °F 10.9 °F 25% 30.00 in 10.0 mi West 20.7 mph 27.6 mph N/A   Clear
6:35 PM 44.2 °F 35.9 °F 10.0 °F 25% 30.01 in 10.0 mi WNW 20.7 mph 28.8 mph N/A   Clear
6:55 PM 43.7 °F 37.3 °F 11.1 °F 27% 30.01 in 10.0 mi West 12.7 mph 27.6 mph N/A   Clear
7:15 PM 43.2 °F 34.7 °F 10.9 °F 27% 30.01 in 10.0 mi West 19.6 mph 25.3 mph N/A   Clear
7:35 PM 42.6 °F 35.2 °F 11.3 °F 28% 30.02 in 10.0 mi West 15.0 mph 18.4 mph N/A   Clear
7:55 PM 42.4 °F 35.3 °F 11.1 °F 28% 30.03 in 10.0 mi West 13.8 mph 19.6 mph N/A   Clear
8:15 PM 42.3 °F 35.9 °F 11.1 °F 28% 30.03 in 10.0 mi West 11.5 mph 19.6 mph N/A   Clear
8:35 PM 41.9 °F 34.3 °F 11.3 °F 29% 30.04 in 10.0 mi West 15.0 mph - N/A   Clear
8:55 PM 41.2 °F 35.0 °F 12.0 °F 30% 30.05 in 10.0 mi West 10.4 mph - N/A   Clear
9:15 PM 41.4 °F 34.0 °F 11.7 °F 30% 30.06 in 10.0 mi West 13.8 mph 19.6 mph N/A   Clear
9:35 PM 41.0 °F 33.5 °F 11.8 °F 30% 30.06 in 10.0 mi West 13.8 mph 23.0 mph N/A   Clear
9:55 PM 40.5 °F 34.1 °F 12.2 °F 32% 30.07 in 10.0 mi West 10.4 mph - N/A   Clear
10:15 PM 40.5 °F 33.2 °F 12.0 °F 31% 30.08 in 10.0 mi West 12.7 mph 18.4 mph N/A   Clear
10:35 PM 40.3 °F 35.5 °F 12.6 °F 32% 30.08 in 10.0 mi West 6.9 mph - N/A   Clear
10:55 PM 40.1 °F 34.7 °F 12.9 °F 33% 30.08 in 10.0 mi West 8.1 mph - N/A   Clear
11:15 PM 39.4 °F 31.8 °F 13.1 °F 34% 30.09 in 10.0 mi West 12.7 mph - N/A   Clear
11:35 PM 38.3 °F 31.9 °F 13.3 °F 36% 30.09 in 10.0 mi West 9.2 mph - N/A   Clear
11:55 PM 38.5 °F 31.6 °F 13.8 °F 37% 30.09 in 10.0 mi West 10.4 mph - N/A   Clear